Regional Weather Roundup
Issued by NWS

Home | Current Version | Previous Version | Graphics & Text | Print | Product List | Glossary On
Versions: 1 2 3 4 5 6 7 8 9 10 11 12 13 14 15 16 17 18 19 20 21 22 23 24 25 26 27 28 29 30 31 32 33 34 35 36 37 38 39 40 41 42 43 44 45 46 47 48 49 50
000
ASUS43 KLMK 281210
RWRKY
KENTUCKY REGIONAL WEATHER ROUNDUP
NATIONAL WEATHER SERVICE LOUISVILLE KY
800 AM EDT SUN MAY 28 2017

NOTE "FAIR" INDICATES FEW OR NO CLOUDS BELOW 12,000 FEET
WITH NO SIGNIFICANT WEATHER AND/OR OBSTRUCTIONS TO VISIBILITY.

KYZ001>023-026-027-061>063-070>075-281300-
WESTERN AND SOUTH CENTRAL KENTUCKY

CITY           SKY/WX    TMP DP  RH WIND       PRES   REMARKS
PADUCAH        CLOUDY    64  61  90 S8        29.84R
HENDERSON      CLOUDY    65  62  90 SW14      29.83R
OWENSBORO      CLOUDY    65  62  90 S9        29.83R
HOPKINSVILLE   CLOUDY    65  63  96 SW12      29.87R
BOWLING GREEN  CLOUDY    65  64  97 CALM      29.87R
GLASGOW        CLOUDY    64  64 100 W3        29.88R
$$

KYZ024-025-028>034-038-045-046-053-281300-
NORTH CENTRAL KENTUCKY

CITY           SKY/WX    TMP DP  RH WIND       PRES   REMARKS
LOUISVILLE/SDF CLOUDY    66  62  87 S9        29.80R
LOUISVILLE/LOU CLOUDY    66  64  93 S7        29.79F
FORT KNOX      CLOUDY    64  62  96 SW7       29.81R
$$

KYZ035>037-039>044-047>052-055>060-089>105-281300-
NORTHEAST KENTUCKY

CITY           SKY/WX    TMP DP  RH WIND       PRES   REMARKS
LEXINGTON      PTSUNNY   64  60  87 S9        29.82F
COVINGTON      CLOUDY    64  62  93 S8        29.78S
FRANKFORT      CLOUDY    65  61  87 S9        29.80R
$$

KYZ054-064>069-076>088-106>120-281300-
SOUTHEAST KENTUCKY

CITY           SKY/WX    TMP DP  RH WIND       PRES   REMARKS
JACKSON        CLOUDY    63  61  93 CALM      29.85F
LONDON         CLOUDY    62  60  93 CALM      29.87R
SOMERSET       PTSUNNY   61  61 100 CALM      29.87S
MIDDLESBORO    CLOUDY    63  61  95 CALM      29.90R
MONTICELLO     CLOUDY    64  62  93 N13       29.88R
$$





USA.gov is the U.S. government's official web portal to all federal, state and local government web resources and services.